Home   Weather   Fort Nelson   Past weeks

Flag for Canada Past Weather in Fort Nelson, British Columbia, Canada — Yesterday and Last 2 Weeks

32 °F

Low clouds.

Feels Like: 29 °F
Forecast: 27 / 32 °F
Wind: 3 mph from East

Location: Fort Nelson

Current Time: Oct 27, 2016 at 10:06:53 AM

Latest Report: Oct 27, 2016 at 9:00 AM

Visibility: 10 mi

Pressure: 29.96 "Hg

Humidity: 87%

Dew Point: 28 °F

Location of Fort NelsonLocation

Past Weather in Fort Nelson — Graph


Fort Nelson Temperature Yesterday

Maximum temperature yesterday: 32 °F (at 12:00 AM)
Minimum temperature yesterday: 28 °F (at 8:00 AM)
Average temperature yesterday: 31 °F

High & Low Weather Summary for the Past Weeks

High43 °F (Oct 21, 3:00 PM)100% (Oct 17, 2:00 AM)30.32 "Hg (Oct 17, 2:00 AM)
Low12 °F (Oct 19, 4:00 AM)52% (Oct 12, 2:00 PM)29.52 "Hg (Oct 16, 1:00 AM)
Average28 °F88%29.94 "Hg
* Reported Oct 12 9:00 AM — Oct 27 9:00 AM, Fort Nelson, Weather by CustomWeather, © 2016

Note: Actual official high and low records may vary slightly from our data, if they occured in-between our weather recording intervals... More about our weather records


Fort Nelson Weather History for the Previous 24 Hours

Scroll right to see more
Time TempWeatherWind HumidityBarometerVisibility
9:00 AM
Thu, Oct 27
32 °FLow clouds.3 mph87%29.96 "Hg10 mi
8:00 AM30 °FMostly cloudy.3 mph100%29.95 "Hg10 mi
7:00 AM32 °FMostly cloudy.No wind93%29.94 "Hg10 mi
6:00 AM32 °FMostly cloudy.2 mph93%29.93 "Hg10 mi
5:00 AM32 °FLow clouds.2 mph93%29.92 "Hg10 mi
4:00 AM32 °FLow clouds.2 mph93%29.92 "Hg10 mi
3:00 AM32 °FLow clouds.2 mph93%29.92 "Hg10 mi
2:00 AM32 °FLow clouds.No wind93%29.93 "Hg10 mi
1:00 AM32 °FLow clouds.2 mph93%29.93 "Hg10 mi
12:00 AM32 °FLow clouds.2 mph93%29.94 "Hg10 mi
11:00 PM
Wed, Oct 26
32 °FIce fog.No wind93%29.94 "Hg5 mi
10:00 PM32 °FIce fog.3 mph93%29.95 "Hg4 mi
9:00 PM32 °FIce fog.3 mph93%29.95 "Hg5 mi
8:00 PM30 °FIce fog.3 mph100%29.96 "Hg5 mi
7:00 PM30 °FIce fog.2 mph100%29.97 "Hg5 mi
6:00 PM30 °FIce fog.3 mph100%29.99 "Hg5 mi
5:00 PM32 °FIce fog.2 mph93%30.00 "Hg5 mi
4:00 PM32 °FIce fog.5 mph93%30.01 "Hg5 mi
3:00 PM32 °FMostly cloudy.6 mph87%30.02 "Hg10 mi
2:00 PM32 °FMostly cloudy.5 mph87%30.04 "Hg10 mi
1:00 PM32 °FPartly sunny.No wind87%30.05 "Hg10 mi
12:00 PM32 °FMostly cloudy.2 mph87%30.06 "Hg10 mi
11:00 AM30 °FMostly cloudy.3 mph93%30.08 "Hg10 mi
10:00 AM30 °FLow clouds.2 mph93%30.09 "Hg10 mi
Weather by CustomWeather, © 2016

See weather overviewHow to use our weather pages